Wetbulb
57.66 58.14 58.32 58.30 57.99 58.03 57.98 58.11 58.28 58.57 58.82 59.01 59.35 59.25 59.04 59.26 58.92 60.31 56.16 61.95 63.74 66.79 63.33 59.88 58.34 58.47 60.64 58.29 59.33 61.98 55.13 52.69 56.60 56.73 57.35 60.55 59.94 62.81 64.87 63.75 65.01 66.91 67.59 69.58 70.56
57.40 57.77 57.98 57.87 57.77 57.74 57.78 57.93 58.13 58.17 58.38 58.83 59.04 58.92 58.62 59.04 58.73 59.40 66.84 68.64 68.62 68.51 58.71 57.88 55.74 58.31 57.42 57.70 58.89 57.48 54.03 53.60 58.54 60.61 58.95 60.84 61.43 61.83 62.18 62.53 63.85 65.80 68.43 69.56 70.44
57.22 57.75 57.81 57.83 58.06 57.72 57.85 57.88 57.95 58.13 58.35 58.50 58.49 58.24 58.39 59.05 59.60 58.69 65.82 66.48 67.31 66.17 57.60 58.40 58.95 57.74 55.35 57.46 57.15 56.09 53.68 57.07 57.37 58.74 60.86 61.16 61.17 64.23 62.15 61.04 63.53 63.28 65.31 67.76 68.28
56.83 57.41 57.86 57.85 57.90 57.81 57.96 58.08 58.16 58.19 57.96 57.68 57.59 57.77 58.72 59.80 54.55 59.01 68.87 67.81 68.23 61.58 58.66 57.81 57.30 54.54 54.13 54.42 57.29 53.95 56.29 58.12 58.49 58.31 59.09 58.99 61.82 62.41 62.72 62.94 66.07 66.11 66.89 67.28 66.78
57.05 57.20 57.69 57.60 57.68 57.68 57.97 57.98 57.85 57.69 57.04 57.08 57.79 57.84 59.48 59.84 59.51 63.41 69.32 66.71 58.91 57.77 58.57 56.54 55.81 54.91 53.28 55.28 56.08 54.57 55.57 57.30 58.86 59.11 58.75 60.22 60.22 61.13 61.41 65.89 67.49 66.89 67.00 66.80 66.67
56.92 57.08 57.30 57.49 57.41 57.51 57.49 57.13 56.86 56.65 56.86 58.08 58.59 57.20 59.50 55.00 64.57 62.20 62.13 61.57 59.69 57.92 58.18 58.12 56.48 57.03 55.32 55.48 54.66 56.39 56.13 56.83 57.47 57.55 58.44 56.87 60.22 62.82 63.21 66.03 66.45 66.31 66.49 67.59 67.64
56.82 57.01 57.03 57.20 57.30 57.35 57.31 56.78 56.24 56.38 56.60 59.52 58.47 60.36 58.42 58.24 64.82 63.56 59.99 60.51 60.17 59.05 56.72 58.49 58.72 55.88 55.77 53.69 56.85 56.41 53.18 54.61 55.22 56.73 56.56 57.37 56.15 60.76 63.64 65.72 65.50 66.07 66.94 68.02 69.07
56.97 56.76 56.89 57.07 57.26 57.27 57.17 56.47 55.98 56.53 57.66 59.58 58.36 61.16 57.53 61.80 64.15 62.80 61.14 59.71 60.45 59.92 58.93 59.92 59.19 56.92 55.66 56.75 55.76 53.27 53.46 49.63 53.86 55.38 56.17 55.73 52.12 61.87 64.05 64.90 64.37 65.95 67.15 67.77 68.61
56.92 56.50 56.70 56.79 56.94 56.99 56.50 55.81 55.99 56.93 59.38 60.02 60.47 61.27 56.26 61.29 58.78 63.07 61.52 56.58 57.84 57.93 59.04 59.48 57.93 55.40 55.50 52.51 50.93 51.68 47.88 49.28 51.29 55.16 55.08 55.28 54.71 59.66 62.31 64.05 64.17 65.53 66.64 67.50 68.47
56.82 56.17 56.09 56.30 56.59 56.17 55.27 55.10 59.54 58.15 60.97 62.91 62.53 58.43 59.28 56.39 59.30 61.75 60.94 57.59 55.53 55.85 55.40 55.42 54.46 52.24 52.22 51.42 45.90 48.03 48.56 49.98 50.35 52.68 53.26 52.99 56.48 59.42 60.06 62.16 63.63 65.12 66.70 67.19 68.13
56.84 56.23 55.95 55.97 56.00 55.46 55.74 59.24 56.99 58.69 58.96 57.38 57.14 56.16 55.61 60.46 62.53 59.49 58.12 55.73 55.70 54.46 50.66 53.58 49.92 48.03 50.84 52.31 51.91 51.79 50.59 49.98 52.38 53.81 52.47 53.01 54.49 58.07 59.58 60.32 63.29 64.37 65.86 66.65 68.74
56.35 56.19 56.09 55.87 55.78 55.15 57.56 56.35 54.83 54.99 50.01 55.41 55.57 55.93 58.30 58.96 55.94 57.34 57.31 52.58 52.56 49.78 52.31 51.25 48.16 52.16 53.31 52.56 51.17 51.02 50.36 49.85 52.21 54.30 53.52 53.61 53.92 58.43 59.72 60.19 62.63 65.42 65.69 65.67 67.99
55.80 55.54 55.68 55.46 55.02 60.00 57.53 57.08 57.28 57.03 51.77 54.52 56.59 54.49 55.32 56.73 54.50 55.79 55.13 53.65 51.72 50.92 51.62 49.28 50.97 53.19 52.32 51.27 50.41 50.62 50.40 50.57 50.70 53.57 54.13 53.14 52.72 55.83 59.02 60.98 62.00 63.71 65.36 66.36 68.06
55.64 55.46 55.36 54.28 57.23 59.23 56.67 57.34 56.94 57.46 48.92 52.58 52.87 54.69 55.83 55.72 52.30 58.48 57.12 54.62 52.82 50.35 51.01 51.02 54.01 52.19 51.13 50.07 50.94 48.18 52.62 52.32 51.64 51.50 47.53 53.55 46.55 54.88 57.32 58.70 60.70 61.52 63.61 63.80 65.92
55.38 55.66 55.28 54.03 57.69 57.36 58.81 58.94 57.32 57.10 41.72 52.69 53.09 58.02 55.69 52.88 54.74 55.04 58.77 55.45 51.24 51.51 51.72 49.64 51.05 50.86 49.76 50.13 52.40 49.82 53.28 52.29 52.22 51.08 51.15 50.79 48.79 52.86 56.70 56.15 57.98 60.92 62.85 64.17 65.00
54.99 55.17 54.43 58.79 59.67 60.20 60.61 58.08 57.03 47.97 41.81 50.15 54.04 52.44 51.63 52.94 52.88 55.47 55.84 56.91 55.24 52.41 52.75 51.40 54.36 52.57 52.77 53.35 53.00 53.83 53.15 52.46 52.10 50.82 46.43 50.56 50.44 51.08 54.31 56.69 58.71 60.76 62.30 64.06 63.44
54.59 54.28 54.44 58.93 56.47 60.71 59.76 55.53 46.51 43.42 52.97 49.08 50.45 51.79 50.75 50.48 51.78 52.98 52.30 51.62 48.60 46.59 46.57 49.93 50.56 53.55 55.12 51.25 53.82 53.25 52.18 45.49 44.91 45.19 44.93 52.18 50.72 53.58 56.57 58.46 58.56 59.96 61.87 63.11 64.39
53.57 52.54 57.42 60.28 62.04 61.35 57.14 50.25 41.18 49.09 50.06 53.47 51.99 52.06 49.28 50.96 51.12 51.98 50.93 48.55 51.07 50.29 47.13 45.88 44.41 52.33 53.98 52.60 51.55 52.34 52.72 46.96 42.90 43.29 45.67 52.04 47.85 52.46 59.03 60.58 60.18 60.12 62.02 62.67 64.33
51.76 59.44 59.22 61.63 62.72 60.71 52.11 44.07 44.76 49.28 52.82 51.32 50.17 48.02 48.92 50.48 50.70 51.50 50.72 49.76 50.70 51.46 46.58 46.40 47.34 54.02 53.89 54.84 54.69 51.97 50.14 53.62 50.30 50.88 47.11 49.23 52.90 56.45 58.42 58.84 58.98 58.68 61.07 61.00 62.06
54.75 56.28 57.11 61.52 62.62 57.84 49.45 43.83 47.90 51.15 53.15 51.67 46.94 48.93 47.56 49.73 48.70 49.97 50.40 52.44 50.96 51.87 54.20 53.04 47.11 53.42 53.28 55.00 55.05 53.85 54.68 49.59 50.26 44.73 43.26 47.98 50.08 50.16 55.45 56.61 58.02 57.94 58.59 60.33 61.22
54.78 54.15 59.61 61.58 60.65 53.15 45.43 47.11 49.08 51.22 53.41 50.76 49.10 48.56 48.81 48.81 50.81 49.93 50.18 52.47 53.33 52.05 52.97 52.52 52.25 49.67 53.60 51.42 50.72 51.67 50.97 52.79 53.87 51.52 45.74 44.73 46.82 57.53 56.79 57.74 57.21 57.81 59.39 60.67 61.71
55.93 50.60 60.21 60.87 51.13 50.88 47.81 49.81 49.43 50.33 53.61 51.80 51.76 50.32 49.20 49.64 50.44 51.31 50.16 51.79 54.41 53.92 49.62 52.99 54.65 49.26 51.21 55.21 55.14 54.26 52.74 54.84 49.17 49.43 51.24 49.61 48.08 58.30 59.24 58.31 59.05 59.85 60.93 61.55 63.55
53.27 54.26 60.09 58.17 46.72 47.79 50.97 50.14 51.00 49.92 50.06 50.29 50.23 51.46 51.85 51.04 48.65 52.55 53.41 54.18 54.48 53.11 52.26 54.96 52.86 46.06 48.46 53.16 54.64 53.06 53.28 54.96 58.74 57.94 51.76 47.09 48.82 57.98 57.80 57.81 58.41 58.73 60.33 61.94 63.67
53.87 49.98 54.28 55.78 54.14 50.74 49.90 50.75 48.76 51.75 50.74 50.98 50.91 51.62 50.63 49.60 52.30 51.25 52.83 54.42 54.95 53.61 56.92 60.36 56.02 52.11 47.08 49.30 53.06 51.43 51.95 53.83 56.71 51.67 50.50 50.52 51.00 54.70 56.09 57.28 58.89 59.83 60.54 60.16 64.46
54.02 51.99 53.80 50.12 50.65 50.96 51.68 52.67 49.98 48.67 51.51 52.55 50.53 50.28 49.57 48.16 48.97 49.56 53.56 54.60 57.90 56.79 56.10 56.48 50.67 52.27 52.27 52.25 52.45 52.69 51.58 51.84 51.00 52.91 47.95 51.63 51.11 54.63 56.38 57.04 59.44 59.93 60.07 60.53 63.27
52.15 51.33 53.15 51.95 53.35 52.68 49.34 50.21 50.90 51.79 51.84 51.51 50.32 50.85 50.62 50.01 51.33 48.65 51.43 53.11 53.28 57.25 56.01 58.75 50.90 52.72 50.31 51.78 52.29 50.51 52.37 53.34 51.78 52.55 53.20 52.88 52.06 57.49 58.93 59.63 58.97 59.69 58.74 61.19 63.00
57.03 57.11 52.91 50.75 51.17 50.22 50.58 51.06 51.39 53.10 53.84 54.53 53.45 51.51 51.21 52.68 55.60 56.98 56.20 56.74 56.86 53.37 56.59 57.71 53.65 51.90 46.19 49.97 49.62 47.05 51.75 52.95 52.65 54.62 52.78 50.88 52.53 57.80 57.28 57.94 59.43 60.36 60.39 61.91 62.91
MSLP
1019.69 1019.27 1018.80 1018.29 1017.78 1017.32 1016.80 1016.21 1015.61 1015.08 1014.57 1014.08 1013.70 1013.37 1013.04 1012.74 1012.14 1011.43 1009.13 1007.24 1006.78 1007.18 1007.62 1006.55 1006.25 1005.40 1004.40 1003.19 1002.58 1001.79 1001.03 999.19 998.46 999.08 999.67 1000.31 1000.95 1002.19 1003.37 1003.99 1004.72 1004.86 1006.47 1007.97 1008.91
1019.59 1019.21 1018.73 1018.21 1017.65 1017.13 1016.63 1016.00 1015.42 1014.90 1014.34 1013.80 1013.43 1013.22 1012.90 1012.70 1011.40 1009.08 1006.93 1006.81 1007.00 1007.27 1007.16 1005.93 1005.21 1004.61 1003.60 1002.62 1002.17 1001.64 1000.79 999.32 998.04 998.49 999.56 999.96 1001.25 1002.55 1004.00 1005.08 1005.83 1006.57 1007.49 1008.27 1008.38
1019.61 1019.14 1018.58 1018.07 1017.59 1016.99 1016.34 1015.78 1015.16 1014.63 1014.10 1013.53 1013.21 1013.09 1012.81 1012.50 1010.34 1006.69 1006.81 1006.95 1007.12 1007.34 1006.89 1005.53 1004.42 1003.95 1002.86 1001.91 1001.36 1001.16 1000.03 998.76 998.78 999.10 999.28 1000.16 1001.13 1002.70 1004.07 1005.57 1006.06 1006.94 1007.56 1008.08 1008.28
1019.69 1019.10 1018.46 1018.00 1017.43 1016.78 1016.07 1015.49 1014.87 1014.36 1013.92 1013.34 1013.03 1012.90 1012.65 1011.86 1008.27 1006.40 1006.87 1006.87 1007.34 1007.16 1006.60 1005.10 1003.94 1003.43 1002.41 1001.51 1000.98 1000.51 999.72 998.86 998.96 999.63 999.67 999.87 1000.92 1002.67 1003.58 1004.66 1005.85 1006.84 1007.38 1007.86 1008.28
1019.72 1019.17 1018.49 1017.91 1017.20 1016.56 1015.82 1015.17 1014.48 1013.94 1013.50 1013.02 1012.75 1012.66 1012.21 1009.85 1006.40 1006.35 1006.62 1006.94 1007.10 1006.96 1006.06 1004.50 1003.67 1002.98 1002.17 1001.40 1000.75 1000.37 999.83 999.62 999.60 1000.03 1000.03 1000.17 1000.91 1002.00 1003.45 1004.15 1005.59 1006.61 1007.29 1007.75 1008.08
1019.64 1019.02 1018.46 1017.69 1016.84 1016.13 1015.48 1014.71 1014.08 1013.47 1013.03 1012.59 1012.44 1012.62 1011.26 1007.59 1005.01 1006.04 1005.98 1006.43 1006.11 1006.17 1005.20 1003.97 1003.12 1002.77 1002.10 1001.32 1000.89 1000.03 999.86 999.91 1000.07 1000.18 1000.56 1000.79 1000.97 1001.93 1003.38 1004.23 1005.34 1006.49 1007.10 1007.62 1008.07
1019.49 1018.86 1018.21 1017.39 1016.42 1015.60 1014.93 1014.23 1013.55 1013.03 1012.64 1012.25 1012.13 1011.86 1009.13 1005.76 1004.42 1005.44 1005.51 1005.43 1005.50 1005.15 1004.41 1003.66 1002.94 1002.67 1002.20 1001.46 1000.73 1000.31 1000.24 1000.09 1000.21 1000.11 1000.40 1000.78 1000.98 1002.13 1003.20 1004.14 1005.23 1006.31 1007.02 1007.53 1007.83
1019.49 1018.85 1018.05 1017.09 1016.15 1015.07 1014.35 1013.64 1012.97 1012.55 1012.22 1012.03 1012.11 1011.06 1007.09 1004.32 1004.39 1004.63 1004.83 1004.81 1004.89 1004.61 1004.16 1003.61 1003.31 1002.95 1002.00 1001.54 1000.76 1000.91 1000.81 1000.37 1000.16 1000.33 1000.54 1001.12 1000.61 1001.78 1002.94 1003.88 1004.86 1005.72 1006.40 1007.15 1007.49
1019.41 1018.64 1017.78 1016.78 1015.83 1014.65 1013.72 1012.80 1012.25 1011.91 1011.82 1011.75 1011.47 1009.66 1005.68 1004.89 1004.55 1004.18 1004.35 1004.27 1004.46 1004.59 1004.41 1004.21 1004.05 1003.21 1002.41 1001.73 1001.33 1001.48 1000.68 1000.19 999.84 1000.16 1000.35 1000.76 1000.45 1001.66 1002.53 1003.32 1003.96 1005.00 1006.06 1006.74 1007.42
1019.28 1018.53 1017.56 1016.57 1015.42 1014.25 1013.20 1011.52 1011.35 1011.43 1011.27 1010.47 1009.44 1008.20 1005.02 1003.77 1003.54 1003.61 1004.11 1004.14 1004.18 1004.35 1004.35 1004.32 1003.94 1003.13 1002.27 1001.58 1001.03 1001.05 1000.61 999.88 999.36 1000.04 1000.32 1000.18 1000.74 1001.45 1002.03 1002.47 1003.70 1004.53 1005.62 1006.59 1007.24
1019.17 1018.45 1017.58 1016.46 1015.14 1013.89 1012.97 1010.83 1010.95 1010.72 1009.21 1007.56 1006.16 1005.08 1003.38 1002.91 1003.31 1003.75 1004.00 1004.06 1003.94 1004.04 1003.79 1003.59 1003.09 1002.09 1001.39 1001.13 1000.84 1000.43 1000.26 999.67 999.03 999.64 1000.16 1000.18 1000.17 1000.85 1001.67 1002.30 1003.04 1003.93 1005.15 1005.61 1006.55
1019.01 1018.36 1017.46 1016.26 1014.75 1013.53 1013.01 1010.56 1010.24 1009.89 1007.74 1006.21 1004.83 1003.79 1003.05 1002.61 1002.99 1003.29 1003.86 1004.01 1003.65 1003.42 1003.50 1002.95 1002.27 1001.33 1000.97 1000.61 1000.36 999.83 999.37 999.21 998.84 999.01 1000.00 1000.00 1000.00 1000.39 1001.27 1002.15 1002.18 1003.22 1004.09 1004.75 1005.73
1019.07 1018.39 1017.51 1016.14 1014.23 1012.40 1011.37 1009.91 1009.45 1009.07 1007.90 1004.17 1002.75 1002.48 1002.62 1002.88 1002.64 1002.45 1003.52 1003.57 1003.17 1003.02 1002.60 1002.12 1001.29 1001.16 1000.64 1000.17 999.81 999.69 999.34 998.98 998.74 999.36 1000.13 1000.15 1000.15 1000.30 1000.87 1001.61 1001.84 1002.31 1002.91 1003.55 1004.60
1019.14 1018.55 1017.85 1016.69 1013.44 1012.43 1010.36 1009.92 1009.46 1009.42 1007.34 1002.61 1001.46 1001.35 1001.70 1002.41 1002.43 1001.91 1002.75 1003.16 1002.87 1002.71 1002.37 1001.62 1000.75 1000.38 1000.39 1000.16 999.89 999.82 999.56 999.04 998.65 999.36 999.98 1000.22 999.88 999.94 1000.44 1001.07 1001.70 1002.45 1002.89 1003.17 1003.85
1019.12 1018.58 1017.96 1017.88 1015.84 1012.97 1011.03 1010.08 1009.75 1009.27 1005.77 1001.85 1001.12 1001.13 1001.18 1001.90 1001.12 1001.72 1002.04 1002.83 1002.52 1002.29 1002.26 1001.37 1000.72 1000.34 999.58 999.77 1000.05 999.94 999.50 999.08 998.79 999.32 999.91 999.69 999.94 999.23 999.73 1000.46 1001.21 1001.82 1002.36 1002.80 1003.00
1018.95 1018.52 1018.22 1015.47 1014.79 1012.35 1010.74 1010.36 1009.79 1008.47 1004.12 1001.03 1000.63 1000.86 1001.22 1001.57 1001.51 1001.26 1002.21 1002.65 1002.63 1002.53 1002.11 1001.49 1000.77 1000.18 999.62 999.72 999.71 999.62 999.24 999.17 999.33 999.21 999.70 999.72 1000.25 999.36 999.64 1000.01 1000.58 1000.77 1001.29 1002.08 1002.56
1018.57 1018.06 1018.09 1016.58 1013.51 1011.78 1011.06 1010.31 1008.75 1006.19 1002.54 1001.30 1000.30 1000.54 1000.83 1001.08 1001.16 1001.52 1002.22 1002.71 1002.82 1003.05 1002.78 1001.92 1000.48 999.60 999.32 999.19 998.96 999.08 999.25 999.45 999.46 999.08 998.94 998.98 999.12 998.40 999.38 999.45 999.69 1000.04 1000.67 1001.56 1002.45
1018.10 1017.13 1015.19 1014.06 1012.80 1011.79 1011.42 1010.26 1007.92 1004.54 1002.55 1001.84 1001.45 1001.24 1000.94 1000.77 1000.97 1001.20 1002.01 1002.49 1003.25 1003.37 1003.09 1002.40 1000.84 999.46 998.87 998.40 998.07 998.24 998.97 998.65 998.65 998.94 998.83 998.71 998.54 998.18 998.52 999.26 999.51 999.67 1000.15 1001.26 1002.41
1017.68 1014.93 1012.87 1011.58 1011.43 1011.35 1011.08 1009.00 1006.47 1004.50 1002.99 1002.46 1001.94 1001.77 1001.20 1000.84 1000.48 1000.52 1001.38 1001.98 1002.52 1003.58 1003.69 1002.77 1000.98 999.56 998.81 998.28 997.88 998.31 998.49 998.48 998.85 999.22 999.48 998.41 998.85 999.82 999.91 999.66 999.75 999.94 1000.25 1001.60 1002.75
1017.74 1014.80 1011.67 1010.53 1009.88 1010.85 1010.33 1008.05 1005.84 1004.30 1003.57 1003.32 1002.73 1002.31 1001.28 1000.75 1000.69 1000.28 1000.37 1000.96 1001.72 1002.61 1003.39 1003.25 1001.85 999.89 998.62 998.57 997.98 997.86 998.47 998.79 999.04 999.29 999.55 998.99 999.47 999.21 999.51 999.50 999.88 1000.08 1000.85 1001.98 1003.21
1017.37 1013.18 1008.98 1009.66 1010.30 1010.18 1008.68 1006.84 1005.60 1004.42 1003.89 1004.22 1003.68 1002.84 1002.45 1002.11 1001.34 1000.76 1000.27 1000.04 1000.76 1001.86 1002.71 1003.21 1003.10 1000.76 998.79 998.36 998.16 998.13 998.17 998.59 998.96 999.20 999.31 999.62 1001.97 1000.55 1000.15 999.94 1000.24 1000.26 1001.00 1003.01 1004.21
1016.23 1012.27 1009.21 1009.15 1009.67 1008.67 1007.42 1006.40 1005.37 1004.11 1003.70 1004.35 1004.41 1003.88 1003.74 1003.40 1002.54 1001.81 1000.40 1000.13 999.82 1000.74 1001.96 1003.00 1002.71 1001.54 1000.25 998.94 998.46 998.15 998.19 998.33 998.98 999.96 999.99 1000.34 1001.72 1000.46 1001.01 1000.86 1000.50 1000.80 1001.45 1002.41 1003.64
1014.98 1011.72 1009.11 1009.31 1008.52 1007.43 1006.32 1005.50 1004.53 1003.82 1004.12 1004.23 1004.67 1004.30 1004.09 1004.01 1003.85 1002.76 1001.57 1000.19 1000.29 1000.50 1001.25 1002.47 1002.45 1002.30 1001.41 1000.23 999.26 999.00 998.70 998.82 999.30 1000.15 1000.57 1000.76 1000.57 1000.46 1000.49 1000.97 1001.13 1001.24 1001.99 1002.86 1003.91
1015.29 1010.83 1009.05 1008.70 1008.38 1007.33 1006.32 1004.59 1004.17 1004.15 1004.30 1004.27 1004.83 1004.81 1004.46 1004.74 1004.19 1003.56 1002.85 1001.82 1001.41 1001.42 1001.95 1001.80 1001.98 1001.98 1001.74 1000.97 1000.51 1000.11 999.90 999.34 999.68 1000.49 1000.92 1000.52 1000.65 1000.81 1001.07 1001.27 1002.01 1002.12 1002.80 1003.05 1004.06
1015.13 1010.89 1009.43 1008.03 1007.59 1007.16 1006.48 1005.16 1003.88 1003.78 1004.16 1004.66 1004.91 1005.42 1005.23 1005.23 1004.90 1005.18 1004.84 1004.23 1003.39 1002.22 1002.13 1002.23 1002.07 1002.02 1001.60 1001.39 1001.61 1001.80 1000.10 999.65 999.84 1000.84 1002.07 1000.68 1001.29 1001.88 1002.85 1002.81 1003.39 1002.86 1003.39 1003.72 1004.83
1014.84 1012.42 1010.82 1009.37 1008.39 1007.16 1005.99 1005.60 1004.67 1003.76 1003.92 1004.23 1005.01 1005.31 1005.44 1005.63 1005.60 1006.38 1007.03 1006.58 1007.19 1003.88 1002.65 1002.30 1002.23 1002.34 1001.90 1001.85 1002.31 1001.57 1000.40 1000.06 999.99 1000.07 1000.44 1001.19 1002.04 1002.07 1003.29 1003.54 1003.32 1003.71 1003.79 1004.32 1005.90
1014.69 1013.03 1012.34 1010.16 1008.48 1007.62 1006.40 1005.93 1005.29 1004.69 1005.63 1004.59 1004.67 1005.35 1005.79 1006.03 1006.45 1006.77 1006.90 1006.75 1006.23 1006.35 1003.85 1002.59 1002.50 1002.46 1001.98 1001.88 1001.59 1000.87 1000.87 1000.68 1000.93 1001.00 1001.56 1001.10 1002.68 1002.59 1003.63 1003.74 1004.23 1004.67 1004.34 1005.31 1006.68
Wind_Speed
16 16 16 17 18 18 18 19 19 19 18 18 17 16 15 15 17 7 10 5 10 11 3 10 11 14 15 17 18 18 12 14 14 11 11 9 13 16 13 11 13 15 18 21 17
17 17 17 17 19 19 19 19 20 19 19 18 17 15 14 13 12 14 5 8 9 8 8 12 10 13 12 15 14 12 11 22 12 11 7 14 9 17 22 9 17 19 19 18 16
18 17 17 18 19 20 20 20 21 20 19 19 17 14 12 12 8 5 6 8 6 7 14 15 12 12 15 15 13 15 17 6 8 12 1 18 15 11 19 10 11 18 18 17 14
19 20 19 19 20 20 21 21 21 21 19 18 17 12 9 7 4 7 10 10 4 8 13 18 15 14 17 13 13 15 7 7 9 7 5 8 11 20 18 14 15 19 19 17 16
17 19 20 21 21 21 22 22 22 21 19 18 14 9 7 8 8 13 12 9 9 9 12 12 13 13 15 12 13 10 6 4 3 6 3 4 12 11 14 20 21 19 18 16 15
17 19 20 22 22 23 22 22 21 20 18 16 9 4 7 11 14 15 14 12 11 12 16 16 10 13 14 14 12 13 5 7 5 8 3 7 13 13 15 17 20 18 17 15 14
18 20 21 22 24 24 23 22 21 19 17 13 3 6 10 13 9 15 14 13 13 14 13 11 13 13 16 14 16 10 6 6 7 5 4 10 10 17 15 16 18 17 16 15 16
18 20 21 23 24 26 25 23 20 18 13 7 3 8 9 10 4 10 13 12 12 13 14 13 7 15 16 14 7 9 10 11 13 8 3 9 10 19 17 17 16 18 16 16 13
17 19 23 24 26 28 26 25 20 14 9 6 7 8 14 5 11 12 12 13 11 11 8 8 8 14 11 15 8 14 12 17 13 11 9 13 12 17 15 15 18 16 14 14 13
18 20 23 25 28 28 28 25 2 5 8 9 11 10 12 13 12 13 11 12 13 12 12 11 10 13 14 11 12 15 17 14 12 11 12 11 14 13 14 16 11 16 15 13 13
19 20 23 26 28 29 17 7 5 6 9 15 15 14 7 5 7 8 11 14 13 11 14 15 13 15 18 18 18 18 18 19 8 12 11 14 10 15 12 10 18 14 15 16 15
20 21 24 28 31 29 11 9 10 11 15 17 21 17 19 4 10 13 14 14 14 15 15 15 16 17 16 18 22 20 16 12 18 17 12 12 8 16 16 11 13 19 19 18 17
19 21 24 28 32 16 13 7 11 16 10 17 20 19 16 13 13 14 17 19 15 16 17 18 18 18 16 18 16 18 15 14 12 10 7 16 10 11 13 13 12 9 11 17 19
18 19 22 28 10 18 8 15 13 14 8 14 8 8 17 14 16 16 17 16 11 15 17 16 19 17 18 16 10 13 17 18 16 12 11 14 11 15 14 14 10 9 8 7 14
17 18 19 10 12 9 16 15 14 9 8 5 10 9 8 18 11 17 18 17 18 12 12 17 14 17 13 15 13 16 19 17 10 13 13 17 10 12 16 17 16 15 16 14 14
17 18 17 11 9 19 14 16 9 7 9 2 8 9 13 15 20 9 13 16 14 15 16 17 16 18 15 16 19 21 20 15 11 11 12 14 7 5 10 9 15 18 16 14 12
19 19 14 11 9 16 13 10 7 9 6 5 7 8 11 12 18 10 15 13 14 11 11 15 23 20 13 19 21 21 9 7 10 11 9 17 15 5 20 15 6 11 13 15 12
21 26 11 11 12 13 8 9 9 13 14 11 2 8 12 14 17 16 13 14 15 14 5 9 12 21 15 24 18 18 15 11 13 10 13 17 9 5 17 15 8 5 14 15 12
24 11 11 12 17 6 7 10 14 16 15 6 11 9 14 15 18 17 16 16 18 18 8 8 19 19 17 16 14 12 19 19 13 13 7 6 5 9 2 9 8 9 14 12 10
11 12 14 17 11 7 8 16 18 20 5 10 10 14 14 8 16 17 17 19 16 20 16 4 8 15 22 18 19 15 14 10 8 10 6 8 10 12 14 11 6 9 13 12 12
8 7 0 17 6 8 11 16 19 20 5 5 12 12 11 13 16 17 16 12 21 18 19 13 5 14 17 17 18 16 15 10 10 6 8 7 4 8 8 9 12 13 11 14 14
6 7 10 6 8 9 13 19 20 16 6 7 9 8 8 12 12 19 13 15 14 21 21 14 4 9 13 12 16 16 16 12 7 7 9 2 10 12 3 3 1 10 9 8 10
7 11 8 8 9 12 17 20 21 14 11 4 9 14 8 12 5 14 18 10 3 12 17 15 7 6 8 9 9 8 13 8 5 4 5 6 7 11 9 10 3 7 10 11 10
7 6 8 8 12 17 15 13 16 7 13 6 8 13 8 9 11 14 19 3 2 6 5 3 10 10 9 9 4 6 16 9 4 0 9 10 12 13 11 13 8 8 6 5 14
6 6 4 4 11 15 15 16 9 14 11 8 8 12 11 6 10 16 19 16 20 4 6 4 7 11 14 4 6 28 16 19 15 16 15 5 14 6 7 10 7 6 4 8 15
7 9 11 12 10 12 12 14 15 8 5 10 9 11 12 8 11 4 20 6 18 12 7 6 8 11 15 12 25 3 23 23 18 16 13 11 10 11 14 10 7 5 3 13 14
5 11 5 10 9 9 8 12 13 16 13 8 3 7 5 2 6 8 1 18 6 5 13 8 7 7 13 14 18 17 9 16 4 18 11 4 17 5 5 7 6 5 7 13 14
Wind_Direction
346 343 338 335 333 329 324 323 320 317 314 311 311 315 317 316 302 229 251 264 181 156 154 241 218 239 246 240 235 255 278 284 135 165 124 176 106 86 111 104 69 99 130 124 166
343 338 336 335 330 325 322 320 315 314 313 310 311 314 318 319 283 252 196 108 127 150 218 224 213 227 231 238 238 231 257 266 70 100 112 122 105 98 66 14 95 98 111 141 175
340 335 334 332 328 321 320 319 314 314 313 310 309 313 316 309 273 64 152 129 152 195 255 283 216 217 232 232 226 245 251 264 71 32 56 126 152 128 124 164 146 136 139 148 160
336 333 332 329 325 321 318 315 313 313 310 307 306 309 312 265 339 116 149 119 149 234 257 253 249 212 236 225 232 247 321 358 103 89 296 127 96 131 165 156 160 144 144 151 156
332 330 329 325 322 318 315 314 312 311 309 306 303 306 280 239 248 140 134 136 178 219 248 233 230 212 239 227 243 248 220 324 71 150 289 7 113 137 109 121 135 146 148 152 155
330 329 327 323 321 318 315 313 311 308 309 306 296 287 252 256 102 152 166 167 210 208 240 239 228 224 249 240 232 230 175 216 152 195 123 257 137 127 122 128 140 153 156 157 153
331 329 324 324 320 317 314 313 309 303 304 309 267 252 260 252 131 164 184 189 210 207 232 250 243 230 248 269 252 283 219 204 206 182 202 268 131 134 154 132 146 163 162 161 170
329 326 324 324 321 315 314 313 303 297 292 293 234 254 262 191 283 178 187 196 210 216 262 297 281 285 256 274 224 240 232 216 204 214 194 238 199 136 148 145 160 174 175 164 201
329 328 326 325 320 316 317 309 295 279 252 254 241 231 264 99 220 217 207 205 207 231 241 313 287 251 245 255 211 241 225 240 185 168 226 209 146 145 175 162 169 162 170 174 191
331 330 326 325 319 318 320 297 303 259 221 224 259 270 251 231 195 202 209 224 197 210 222 213 225 226 240 222 210 214 234 245 203 174 243 229 138 154 183 181 148 162 165 188 179
332 332 328 324 318 318 335 306 290 185 258 274 290 245 289 135 103 201 206 220 198 217 222 208 226 212 218 222 238 208 219 242 216 182 195 251 178 156 172 195 158 165 172 187 176
332 332 330 325 317 315 292 328 20 321 304 279 266 250 264 231 202 213 190 209 198 213 217 231 229 232 235 218 227 246 253 213 244 165 183 251 222 153 162 191 196 164 180 188 172
331 332 331 327 316 301 329 1 331 335 285 287 236 224 227 220 248 192 188 214 205 224 216 232 211 235 237 249 233 241 254 268 163 141 226 250 200 196 163 190 207 175 182 183 167
330 330 331 333 308 330 314 359 331 336 274 259 181 214 206 203 233 247 182 212 223 220 248 237 256 207 225 243 226 252 242 243 206 167 219 230 253 186 177 185 180 204 194 204 159
328 326 328 317 300 301 316 318 328 291 283 155 113 120 179 191 118 215 177 217 233 228 239 247 228 251 250 214 234 235 246 256 207 202 237 227 239 201 188 177 189 200 187 211 175
322 320 333 307 254 270 311 322 290 237 248 145 148 193 215 203 230 187 212 206 237 249 266 251 254 238 232 232 218 226 263 214 256 226 212 237 188 3 173 196 198 189 195 184 166
316 309 301 288 266 324 318 298 244 246 223 250 238 163 210 191 226 165 195 206 223 224 249 277 259 242 212 227 218 222 225 210 217 233 229 226 213 191 162 204 159 184 176 168 155
315 307 262 243 257 266 287 266 253 268 264 358 347 308 303 213 212 171 207 207 213 248 259 250 249 258 194 221 210 208 214 227 205 223 235 232 224 153 169 170 175 187 172 154 152
309 296 278 241 229 238 259 238 237 252 335 299 331 287 255 247 259 196 191 222 196 215 208 290 238 239 236 234 220 203 228 236 283 262 248 172 140 34 278 153 170 199 135 141 161
318 298 260 255 193 201 238 247 268 271 221 313 283 285 305 310 237 246 199 197 209 203 220 277 302 297 198 220 250 219 219 253 256 270 280 217 188 234 181 144 154 157 138 151 180
281 263 49 191 138 220 232 240 246 247 270 291 274 288 304 319 305 309 243 219 184 199 216 234 247 286 234 197 226 222 232 233 256 264 290 285 59 355 174 134 175 182 153 97 99
266 272 138 177 210 226 238 240 263 289 162 225 279 304 279 291 310 307 284 245 184 177 204 219 269 291 293 271 219 249 227 250 229 216 256 77 248 132 276 224 81 105 77 100 114
267 255 245 209 236 234 233 241 252 243 253 228 254 253 276 312 308 298 307 269 291 201 193 193 219 257 327 278 257 273 256 260 208 134 267 293 121 143 148 118 85 87 86 118 108
275 255 213 206 249 281 294 262 240 209 253 251 241 289 272 292 268 294 321 302 200 255 45 250 222 223 220 245 312 218 244 287 141 243 291 220 175 162 169 145 134 91 67 56 97
246 252 355 236 222 235 252 277 253 236 190 242 242 251 260 295 274 306 321 355 310 193 263 228 243 261 262 204 295 278 254 228 237 160 217 290 104 39 65 27 105 91 106 68 78
289 339 352 299 299 296 215 249 274 298 289 180 208 259 242 241 233 201 291 39 281 326 236 234 248 252 270 220 230 288 296 285 249 225 224 92 100 152 173 180 132 95 47 101 95
348 300 262 295 262 263 253 240 250 268 164 283 272 212 287 74 14 301 21 283 7 276 306 193 229 231 262 254 259 262 202 268 288 302 12 150 128 273 137 101 103 86 80 97 102